Location: Excel
(51.3833°N, 110.5667°W)
Time: 20:00:57
(UTC+00:00)

Envisat - Pass Details

Date: 09 December 2021
Orbit: 764 x 766 km, 98.2° (Epoch: 26 January)

Event Time Altitude Azimuth Distance (km) Brightness Sun altitude
Rises 00:22:00 0° 197° (SSW) 3,222 6.9 -9.9°
Reaches altitude 10° 00:24:38 10° 210° (SSW) 2,301 6.3 -10.3°
Maximum altitude 00:28:54 27° 267° (W) 1,442 5.3 -10.9°
Drops below altitude 10° 00:33:14 10° 325° (NW) 2,316 5.7 -11.5°
Sets 00:35:53 0° 338° (NNW) 3,247 6.3 -11.9°
